Temperature
19 18 18 17 17 16 16 15 14 14 14 13 13 13 13 12 12 12 12 12 12 12 12 12 13 13 13 13 13 13 14 14 14 15 15 16 16 16 16 17 17 17 17
19 18 18 17 17 16 16 15 14 14 13 13 13 13 12 12 12 12 12 12 12 12 12 12 12 12 13 13 13 13 13 14 14 14 14 15 15 16 16 16 17 17 17
19 18 18 17 17 16 15 15 14 14 13 13 13 12 12 12 12 12 12 12 12 12 12 12 12 12 12 12 13 13 13 13 13 13 14 14 15 15 16 16 16 17 17
19 18 18 17 17 16 15 15 14 13 13 13 13 12 12 12 12 12 12 12 12 12 12 12 12 12 12 12 12 12 13 13 13 13 13 14 14 14 15 16 16 16 16
19 19 18 17 17 16 15 15 14 14 13 13 13 12 12 12 12 11 12 11 11 11 11 12 12 12 12 12 12 12 12 12 13 13 13 13 14 14 14 14 15 16 16
19 19 18 17 16 16 15 15 14 14 13 13 13 12 12 12 12 12 11 11 11 11 11 12 12 11 11 11 12 12 12 12 12 13 13 13 13 13 14 14 14 15 16
19 19 18 17 17 16 15 15 14 14 14 13 13 12 12 12 12 12 11 11 11 11 11 11 11 11 11 11 11 12 12 12 12 12 12 13 13 13 13 13 14 14 15
19 19 18 17 17 16 15 15 15 14 14 13 13 13 13 12 12 12 12 11 11 11 11 11 11 11 11 11 11 11 12 12 12 12 12 12 13 13 13 13 13 13 14
19 19 18 18 17 16 16 15 15 14 14 14 13 13 13 13 12 12 12 11 11 11 11 11 11 11 11 11 11 11 12 12 12 12 12 12 12 13 13 13 13 13 13
19 19 18 18 17 16 16 15 15 14 14 14 14 13 13 13 12 12 12 12 12 11 11 11 11 11 11 11 11 11 11 11 12 12 12 12 12 12 13 13 13 13 13
20 19 18 18 17 16 16 15 15 15 14 14 14 14 13 13 13 12 12 12 12 12 12 11 11 11 11 11 11 11 11 11 11 12 12 12 12 12 12 12 13 13 13
20 19 19 18 17 17 16 16 15 15 15 14 14 14 14 13 13 13 13 12 12 12 12 12 12 11 11 11 11 11 11 11 11 11 12 12 12 12 12 12 12 13 13
20 19 18 18 17 17 16 16 16 15 15 15 14 14 14 14 13 13 13 13 13 12 12 12 12 12 12 11 11 11 11 11 11 11 12 12 12 12 12 12 12 12 12
20 19 19 18 18 17 17 16 16 16 15 15 15 14 14 14 14 14 13 13 13 13 12 12 12 12 12 12 11 11 11 11 11 11 11 11 11 12 12 12 12 12 12
20 19 19 18 18 17 17 17 16 16 16 15 15 15 14 14 14 14 13 13 13 13 13 12 12 12 12 12 12 12 11 11 11 11 11 11 11 11 12 12 12 12 12
20 19 19 18 18 18 17 17 17 16 16 16 15 15 15 14 14 14 14 13 13 13 13 13 12 12 12 12 12 12 12 11 11 11 11 11 11 11 11 11 11 12 12
20 20 19 19 18 18 17 17 17 16 16 16 16 15 15 15 14 14 14 14 13 13 13 13 13 12 12 12 12 12 12 12 12 11 11 11 11 11 11 11 11 11 11
20 20 19 19 18 18 17 17 17 17 16 16 16 15 15 15 14 14 14 14 14 13 13 13 13 13 12 12 12 12 12 12 12 12 11 11 11 11 11 11 12 12 12
20 20 19 18 18 18 17 17 17 16 16 16 16 15 15 15 14 14 14 14 13 13 13 13 13 13 13 12 12 12 12 12 12 12 11 11 12 11 11 11 12 12 12
20 19 19 18 18 17 17 17 17 16 16 16 16 15 15 14 14 14 13 13 13 13 13 13 13 13 13 12 12 12 12 12 12 12 12 11 11 11 11 11 11 12 12
19 19 18 18 18 17 17 17 17 16 16 16 15 15 14 14 14 13 13 13 13 13 13 13 13 12 12 12 12 12 12 12 12 12 12 11 11 11 11 11 11 11 11
19 19 18 18 17 17 17 17 16 16 16 15 15 14 14 13 13 13 13 12 12 12 12 12 12 12 12 12 12 12 12 12 12 12 11 11 11 11 11 11 11 11 11
19 18 18 17 17 17 16 16 16 15 15 15 14 14 13 13 13 12 12 12 12 12 12 12 12 12 12 12 12 12 11 11 11 11 11 11 11 11 11 11 11 11 11
19 18 17 17 17 16 16 16 15 15 15 14 14 13 13 12 12 11 11 11 11 11 11 11 11 11 11 11 11 11 11 11 11 11 11 11 11 11 11 11 11 11 10
18 18 17 17 16 16 16 15 15 14 14 14 13 12 12 11 11 11 10 10 10 10 10 10 10 10 10 10 10 10 10 10 11 10 11 11 11 11 11 11 11 10 10
18 17 17 16 16 16 15 15 14 14 13 13 12 12 11 10 10 10 9 9 9 9 9 9 9 9 9 9 9 10 10 10 10 10 10 10 10 10 10 10 10 10 10
Wind_Speed
5 5 5 5 4 3 2 2 1 1 1 1 2 2 3 3 3 4 6 6 7 6 3 3 3 2 2 2 2 1 1 1 1 1 2 2 2 3 3 3 3 4 5
5 5 5 5 4 4 3 2 3 2 1 1 1 1 2 3 3 3 5 6 6 6 4 3 3 2 2 2 2 1 1 1 0 1 0 1 2 2 3 3 4 4 3
9 7 7 6 5 5 5 4 4 3 2 1 1 2 2 3 4 4 4 5 6 5 4 3 2 2 1 1 2 1 0 1 1 1 1 1 1 1 1 2 2 3 4
7 7 8 7 7 6 5 5 5 4 3 1 0 0 1 2 3 3 4 6 5 5 5 4 3 2 1 2 2 1 1 1 1 1 1 1 1 1 1 2 1 2 3
9 9 9 9 7 6 5 5 4 4 3 2 1 1 1 2 3 3 5 5 5 5 5 4 3 3 2 2 2 2 1 1 1 1 1 1 1 1 1 1 2 2 2
8 8 7 6 5 4 4 4 4 5 4 3 2 2 3 3 4 4 5 5 4 4 6 4 4 3 2 3 3 2 1 1 1 1 1 1 1 2 2 2 2 2 2
8 8 8 7 7 7 6 5 5 5 4 3 3 3 3 3 3 4 4 4 4 4 5 5 4 3 3 3 2 2 2 1 1 2 2 2 3 2 2 2 2 2 2
8 9 9 9 8 8 7 6 6 6 5 4 4 3 3 3 3 3 3 4 3 4 5 5 5 4 4 3 2 2 2 1 2 2 2 2 3 3 3 3 2 2 2
9 9 9 8 8 8 8 8 7 7 6 5 4 4 3 3 3 3 3 3 3 4 5 5 5 4 4 3 2 1 2 2 2 3 3 2 2 3 3 3 3 3 2
7 8 8 8 8 8 7 6 7 7 6 5 4 4 4 3 3 3 3 4 4 4 5 5 5 4 4 4 2 2 2 2 2 2 2 2 2 3 3 3 3 4 3
9 8 8 7 7 6 6 6 6 6 6 5 5 4 4 3 3 3 4 4 4 4 4 4 4 4 4 4 3 3 3 3 3 2 2 3 3 3 2 2 3 4 4
7 7 7 6 5 6 6 6 6 6 6 5 4 5 4 3 3 4 4 4 4 4 4 4 4 4 4 4 3 4 3 3 3 4 3 4 3 3 3 2 3 3 4
7 5 5 6 7 7 6 6 6 7 6 4 5 5 4 4 5 5 4 4 4 4 4 3 4 4 4 4 4 3 3 3 4 4 4 4 3 4 3 3 3 3 3
7 7 6 7 7 6 6 6 7 6 5 5 5 5 5 5 5 5 4 4 4 4 4 4 4 5 5 4 4 4 3 4 4 4 4 4 4 5 4 4 4 3 3
7 8 8 7 6 6 6 6 6 5 4 4 5 6 5 5 5 5 5 4 4 4 4 4 5 5 4 4 4 3 3 4 4 4 4 4 5 6 5 4 3 4 3
9 9 8 7 7 7 6 5 5 4 4 4 5 4 4 4 4 5 5 5 5 4 4 4 5 5 5 7 7 4 3 3 3 4 4 5 5 5 6 6 5 4 4
10 9 9 8 8 7 6 6 5 3 3 3 3 3 3 4 4 4 4 5 5 4 5 5 5 6 7 9 8 6 3 3 3 4 4 4 4 5 4 5 5 5 6
10 9 8 7 6 5 5 4 3 3 3 2 2 3 3 4 4 4 5 5 4 4 4 5 5 5 7 9 8 7 3 3 4 4 4 4 5 4 4 4 4 4 4
9 8 8 7 6 6 5 5 4 3 2 1 3 3 2 3 3 4 5 4 3 4 4 4 4 5 7 9 8 6 2 3 5 4 4 4 5 7 6 4 4 5 5
7 7 7 6 6 5 6 7 5 3 2 2 2 2 2 2 3 4 4 3 3 4 4 4 4 4 5 8 8 6 1 3 4 5 4 5 6 8 7 4 4 6 6
7 8 8 7 6 6 8 7 5 3 2 1 0 1 1 1 2 3 2 3 3 3 3 4 4 4 5 7 9 7 1 2 3 4 5 5 8 9 8 6 5 7 7
8 9 9 7 5 6 8 7 5 2 2 2 3 3 3 2 2 2 3 3 2 2 3 3 5 4 5 6 8 9 5 3 2 4 4 5 9 10 9 6 6 8 6
10 8 9 8 5 5 7 8 4 3 4 4 3 3 3 4 3 3 3 3 3 2 2 3 4 5 5 6 9 9 9 7 3 3 5 7 8 8 6 7 7 6 3
10 9 10 10 6 5 5 6 5 5 6 5 3 3 4 4 4 4 3 3 3 3 3 3 3 4 5 5 6 5 6 7 5 4 6 7 8 6 6 6 5 4 3
9 10 11 10 9 7 6 5 5 7 7 5 4 3 3 3 4 4 3 3 3 3 2 2 2 3 4 6 8 6 5 5 4 4 4 6 6 7 7 6 6 5 5
10 10 10 10 9 8 7 5 5 7 7 5 4 3 3 3 3 3 4 6 5 9 9 7 5 3 5 8 10 11 11 11 10 6 5 6 6 6 6 7 6 6 6
Wind_Direction
223 187 169 156 144 144 155 171 197 281 344 360 350 346 337 331 340 344 350 354 355 355 355 348 342 348 345 324 317 284 266 269 258 309 306 288 238 229 231 217 207 214 210
188 177 169 163 171 180 192 202 226 250 263 268 267 263 285 298 298 313 336 350 354 353 357 354 345 347 350 350 351 359 313 283 219 166 224 314 322 275 239 221 216 217 201
193 188 182 187 189 202 208 210 225 239 253 278 359 4 360 346 344 338 336 335 341 345 348 344 344 341 349 326 305 296 116 281 290 227 178 175 241 296 310 250 229 215 206
190 190 191 196 205 215 216 219 229 242 252 251 47 24 350 312 292 299 306 319 334 340 343 342 345 341 331 318 307 318 227 208 276 297 261 219 198 195 329 330 303 254 225
194 196 199 203 210 213 214 221 234 249 254 247 232 242 283 275 295 308 320 330 332 335 342 341 344 341 330 318 317 321 284 213 215 240 261 239 226 200 210 281 315 312 265
199 205 206 202 216 220 221 222 233 253 256 254 252 243 268 293 316 325 329 329 327 330 342 342 343 333 324 314 309 303 289 259 239 238 234 222 214 207 202 224 258 279 279
194 199 202 206 216 221 224 224 231 252 261 257 260 255 261 272 283 297 307 317 323 321 328 339 334 331 322 312 307 303 299 280 257 250 245 241 240 223 205 212 231 247 277
198 203 207 208 215 222 224 224 231 248 258 256 263 266 262 260 268 278 285 297 295 295 311 327 330 328 329 330 331 319 300 293 278 268 256 249 251 233 218 207 197 228 263
206 210 212 212 218 224 225 222 228 243 254 253 259 268 266 262 271 284 290 295 299 303 324 333 339 340 342 340 342 329 313 309 291 281 270 261 262 249 237 224 204 201 225
212 214 215 217 221 226 230 227 225 236 248 250 251 256 260 263 270 287 302 306 310 316 328 338 342 341 340 342 347 328 319 327 306 284 283 282 272 268 250 232 220 213 214
212 212 215 217 220 225 228 229 230 235 245 247 250 260 269 273 275 278 287 295 302 314 322 326 332 335 334 335 338 323 322 325 316 311 292 286 279 270 263 241 225 218 212
211 210 211 209 215 224 228 229 231 233 240 242 246 255 264 271 275 279 286 290 295 303 307 315 320 324 325 326 322 317 320 313 308 304 297 291 290 282 274 253 240 231 221
205 203 202 208 218 225 229 233 233 236 240 236 244 257 262 262 266 274 285 290 291 297 306 310 308 310 312 312 307 297 299 294 288 286 284 285 286 279 272 258 244 237 233
200 199 208 218 222 226 229 234 241 236 233 228 236 250 255 255 262 271 278 281 283 288 296 299 297 296 298 297 298 295 292 293 288 281 277 279 271 266 266 260 247 235 235
203 205 210 217 220 227 234 236 243 239 222 219 236 249 258 261 265 270 273 276 279 281 284 293 301 302 297 290 294 289 290 294 300 298 286 281 280 277 269 257 240 223 227
206 206 206 206 212 218 224 225 234 232 201 212 240 256 265 269 270 272 274 278 281 283 285 287 292 300 297 308 312 301 283 291 294 301 302 296 294 306 310 301 279 245 229
202 201 201 202 208 210 208 212 222 207 190 218 249 261 263 271 275 281 285 281 280 280 283 283 285 288 292 304 313 312 291 284 287 286 297 309 310 318 311 310 304 288 272
199 200 197 198 202 199 193 190 174 171 185 220 258 272 271 277 288 294 289 286 281 277 278 281 284 286 294 309 314 313 303 288 290 281 274 281 297 303 301 300 302 291 283
192 192 187 181 176 177 170 149 145 146 156 235 270 277 268 274 289 292 289 287 288 289 282 281 289 290 299 316 321 322 295 297 300 297 289 287 289 301 313 302 294 294 291
172 166 156 148 154 163 147 139 143 142 179 241 268 285 273 265 279 284 288 288 282 287 302 310 307 300 302 323 332 333 271 295 304 308 303 300 300 305 312 293 281 287 289
157 148 143 145 155 149 138 137 139 162 207 227 23 10 344 298 292 305 303 300 304 316 325 327 330 332 328 333 343 344 308 269 293 303 307 307 316 314 311 299 269 274 288
146 145 141 138 136 142 140 138 152 173 129 102 74 38 18 10 9 350 340 337 337 345 342 346 345 347 344 346 348 353 348 323 270 286 297 306 319 322 318 311 295 295 298
153 148 141 132 125 137 143 145 160 142 119 98 74 42 31 23 15 20 12 12 17 19 0 5 356 347 351 353 359 1 -0 356 336 299 314 328 337 340 339 340 337 331 313
156 149 143 140 140 138 136 145 144 132 116 103 80 56 48 32 24 30 36 43 32 27 21 16 358 346 352 357 358 358 358 359 1 356 359 5 8 7 360 358 357 350 328
158 155 154 151 151 144 136 137 137 128 116 106 89 67 55 46 35 37 43 47 43 65 66 27 13 12 4 1 13 23 14 7 7 16 25 24 18 16 11 5 358 351 348
158 156 153 150 150 145 139 138 138 133 126 116 101 84 69 55 51 49 37 33 43 49 54 56 58 35 32 26 36 38 36 34 38 49 37 25 18 13 5 359 355 354 351
Height
1517 1519 1520 1521 1522 1522 1521 1520 1519 1517 1515 1513 1511 1510 1508 1506 1505 1503 1501 1500 1498 1497 1496 1495 1494 1493 1493 1493 1493 1493 1493 1494 1494 1495 1496 1496 1497 1499 1501 1503 1505 1507 1510
1515 1516 1518 1519 1520 1521 1520 1519 1518 1516 1515 1513 1511 1509 1507 1506 1504 1503 1501 1499 1498 1496 1495 1494 1493 1492 1491 1491 1491 1491 1491 1492 1492 1493 1493 1494 1496 1496 1498 1500 1502 1504 1506
1512 1515 1516 1518 1519 1520 1519 1518 1517 1516 1514 1512 1511 1509 1507 1506 1504 1502 1500 1499 1497 1495 1494 1493 1492 1491 1490 1490 1489 1489 1490 1490 1490 1491 1492 1492 1492 1493 1495 1497 1498 1501 1503
1511 1513 1515 1517 1518 1518 1518 1517 1516 1515 1514 1512 1511 1509 1507 1505 1503 1502 1500 1498 1496 1495 1493 1492 1491 1490 1489 1488 1488 1488 1488 1488 1489 1489 1490 1491 1491 1492 1493 1494 1495 1497 1499
1509 1511 1513 1515 1516 1517 1517 1517 1516 1515 1513 1512 1510 1509 1507 1505 1503 1501 1500 1498 1496 1494 1493 1491 1490 1489 1488 1487 1487 1487 1487 1487 1487 1488 1488 1489 1490 1491 1491 1491 1493 1494 1496
1507 1510 1512 1514 1515 1516 1516 1515 1515 1514 1513 1511 1510 1508 1507 1505 1503 1501 1499 1497 1496 1494 1492 1491 1489 1488 1487 1486 1486 1486 1486 1485 1486 1486 1486 1487 1488 1488 1489 1490 1490 1491 1493
1505 1508 1510 1512 1513 1514 1514 1514 1514 1513 1512 1511 1509 1508 1506 1504 1503 1501 1499 1497 1495 1493 1492 1490 1488 1487 1486 1485 1485 1485 1484 1484 1484 1484 1484 1485 1485 1486 1487 1488 1488 1489 1490
1503 1505 1508 1510 1511 1512 1513 1513 1513 1512 1511 1510 1509 1507 1506 1504 1502 1500 1498 1496 1494 1493 1491 1489 1488 1486 1485 1484 1484 1483 1483 1483 1482 1482 1482 1483 1483 1483 1484 1485 1486 1486 1487
1501 1503 1506 1508 1509 1510 1511 1511 1511 1511 1510 1509 1508 1506 1505 1503 1501 1500 1498 1496 1494 1492 1491 1489 1487 1485 1484 1483 1483 1482 1481 1481 1481 1480 1480 1480 1481 1481 1481 1482 1483 1485 1485
1499 1501 1504 1506 1507 1509 1509 1510 1510 1509 1509 1508 1507 1505 1504 1502 1501 1499 1497 1496 1494 1492 1490 1488 1486 1485 1484 1482 1481 1480 1480 1479 1479 1478 1478 1478 1478 1478 1479 1479 1480 1481 1482
1497 1499 1501 1503 1505 1507 1507 1508 1508 1508 1507 1507 1506 1504 1503 1502 1500 1498 1497 1495 1493 1491 1489 1488 1486 1484 1483 1481 1480 1479 1478 1477 1477 1476 1476 1476 1476 1476 1476 1477 1477 1478 1479
1495 1497 1499 1501 1503 1504 1505 1506 1506 1506 1506 1505 1504 1503 1502 1501 1499 1498 1496 1494 1493 1491 1489 1487 1485 1484 1482 1481 1479 1478 1477 1476 1475 1474 1474 1474 1473 1473 1473 1474 1474 1475 1476
1492 1495 1497 1499 1500 1502 1503 1504 1504 1504 1504 1504 1503 1502 1501 1500 1498 1497 1495 1494 1492 1490 1489 1487 1485 1483 1482 1480 1478 1477 1475 1474 1473 1472 1472 1471 1471 1471 1471 1471 1471 1472 1472
1490 1492 1494 1496 1498 1499 1501 1501 1502 1502 1502 1502 1501 1500 1499 1498 1497 1496 1494 1493 1491 1489 1488 1486 1484 1483 1481 1479 1477 1476 1474 1473 1472 1471 1470 1469 1469 1469 1468 1468 1468 1469 1469
1487 1489 1491 1493 1495 1497 1498 1499 1500 1500 1500 1500 1499 1499 1498 1497 1496 1494 1493 1492 1490 1488 1487 1485 1484 1482 1480 1478 1476 1475 1473 1472 1470 1469 1468 1467 1467 1466 1466 1466 1466 1466 1466
1483 1486 1488 1490 1492 1494 1495 1496 1497 1498 1498 1498 1497 1497 1496 1495 1494 1493 1491 1490 1489 1487 1485 1484 1482 1481 1479 1477 1475 1474 1472 1470 1469 1468 1466 1466 1465 1464 1464 1463 1463 1463 1463
1480 1482 1485 1487 1489 1491 1493 1494 1495 1495 1495 1495 1495 1494 1494 1493 1492 1490 1489 1488 1486 1485 1484 1482 1481 1479 1478 1476 1474 1472 1471 1469 1468 1466 1465 1464 1463 1462 1461 1461 1460 1460 1460
1477 1479 1482 1484 1487 1489 1490 1491 1492 1493 1493 1493 1493 1492 1491 1490 1489 1488 1486 1485 1484 1482 1481 1480 1479 1477 1476 1475 1473 1471 1469 1468 1466 1465 1463 1462 1461 1460 1459 1458 1457 1457 1457
1474 1476 1479 1481 1484 1486 1487 1489 1490 1490 1490 1490 1490 1489 1488 1487 1486 1485 1484 1482 1481 1480 1479 1477 1476 1475 1474 1472 1471 1469 1468 1466 1465 1464 1462 1461 1459 1458 1457 1456 1455 1454 1454
1471 1473 1476 1478 1481 1483 1485 1486 1487 1487 1488 1488 1487 1486 1485 1484 1483 1482 1480 1479 1478 1477 1476 1474 1473 1472 1471 1470 1469 1467 1466 1464 1463 1462 1461 1459 1457 1456 1454 1453 1452 1450 1450
1467 1470 1473 1475 1478 1480 1482 1483 1484 1485 1485 1485 1484 1483 1482 1481 1480 1479 1477 1476 1475 1474 1473 1472 1471 1469 1468 1467 1466 1465 1464 1462 1461 1460 1458 1457 1455 1453 1452 1450 1449 1448 1447
1464 1467 1470 1473 1475 1477 1479 1480 1481 1482 1482 1482 1481 1480 1479 1478 1477 1476 1475 1473 1472 1471 1470 1469 1468 1467 1466 1465 1464 1463 1461 1460 1459 1457 1456 1454 1453 1451 1449 1448 1446 1445 1444
1461 1464 1467 1470 1472 1474 1476 1478 1479 1479 1479 1479 1478 1478 1477 1476 1474 1473 1472 1471 1470 1469 1468 1467 1466 1465 1464 1463 1461 1460 1459 1458 1456 1455 1453 1452 1450 1448 1446 1445 1443 1442 1441
1458 1461 1464 1466 1469 1471 1473 1475 1476 1476 1476 1476 1476 1475 1474 1473 1472 1471 1470 1468 1467 1466 1465 1464 1463 1463 1461 1460 1459 1458 1456 1455 1454 1452 1451 1449 1448 1446 1444 1443 1441 1440 1439
1454 1457 1460 1463 1466 1468 1470 1471 1472 1473 1473 1473 1473 1472 1472 1471 1470 1469 1468 1466 1465 1465 1464 1463 1462 1461 1459 1458 1457 1456 1454 1452 1451 1450 1448 1447 1445 1444 1442 1441 1439 1438 1436
1450 1453 1456 1459 1462 1464 1466 1468 1469 1470 1471 1471 1470 1470 1470 1469 1468 1467 1466 1465 1465 1464 1463 1462 1461 1460 1459 1457 1456 1454 1453 1451 1449 1448 1446 1444 1443 1441 1439 1438 1436 1435 1433